Starlink 11473

operational
NORAD ID: 62060 Int'l Des: 2024-217 Owner: SPXS Country: US Constellation: starlink
LEOCIRCULAR

Starlink 11473について

説明を読み込み中...

リアルタイム位置

3D地球を読み込み中...

次回通過

高度履歴

Altitude vs Time

uPlot chart will show altitude changes over time

軌道要素

1 62060U 24217D 25351.64193679 .00169937 00000-0 13773-2 0 9999
2 62060 53.1572 115.9702 0001266 55.2967 304.8170 15.69738938 62283
Epoch: Dec 17, 2025 • Age: 9 hours

現在のステータス

高度 371.1 km
速度 7.69 km/s
衛星直下点 -36.22°S, 11.43°W
打ち上げ日 Nov 24, 2024
運用期間 1 years
タイプ internet

技術仕様

分類 Payload
質量 960.00 kg
乾燥質量 910.00 kg
総質量 960.00 kg
長さ 0.30 m
直径 4.10 m
スパン 29.00 m
形状 Box + pan
製造者 SPXS
バスタイプ Starlink V2MD
フェーズステータス In Orbit
所有者/国 SPXS/US

大規模コンステレーション

Loading constellations...